| time (UTC) | temp F | wind direction | speed MPH | gust MPH | rain 1hr in | rain 24hr in | rain mn in | humidity % | barometer mb |
| 20260902154654 | 63 | 115 | 4.0 | 8.0 | 0.00 | 0.00 | 0.00 | 81 | 1016.5 |
| 20260902154650 | 63 | 144 | 4.0 | 8.0 | 0.00 | 0.00 | 0.00 | 81 | 1016.6 |
| 20260902154257 | 62 | 135 | 4.0 | 8.0 | 0.00 | 0.00 | 0.00 | 81 | 1016.4 |
| 20260902153739 | 62 | 115 | 3.0 | 7.0 | 0.00 | 0.00 | 0.00 | 82 | 1016.4 |
| 20260902153735 | 62 | 135 | 4.0 | 8.0 | 0.00 | 0.00 | 0.00 | 81 | 1016.4 |
| 20260902153257 | 62 | 147 | 3.0 | 6.0 | 0.00 | 0.00 | 0.00 | 81 | 1016.3 |
| 20260902152148 | 62 | 143 | 3.0 | 5.0 | 0.00 | 0.00 | 0.00 | 82 | 1016.4 |
| 20260902151652 | 61 | 152 | 3.0 | 7.0 | 0.00 | 0.00 | 0.00 | 82 | 1016.3 |
| 20260902151648 | 62 | 132 | 3.0 | 7.0 | 0.00 | 0.00 | 0.00 | 82 | 1016.3 |
| 20260902151302 | 61 | 146 | 3.0 | 7.0 | 0.00 | 0.00 | 0.00 | 81 | 1016.3 |
| 20260902151256 | 61 | 144 | 3.0 | 5.0 | 0.00 | 0.00 | 0.00 | 82 | 1016.4 |
| 20260902150826 | 61 | 146 | 3.0 | 7.0 | 0.00 | 0.00 | 0.00 | 81 | 1016.3 |
| 20260902150154 | 61 | 146 | 3.0 | 7.0 | 0.00 | 0.00 | 0.00 | 81 | 1016.3 |
| 20260902145648 | 61 | 146 | 4.0 | 10.0 | 0.00 | 0.00 | 0.00 | 82 | 1016.4 |
| 20260902145147 | 61 | 154 | 6.0 | 10.0 | 0.00 | 0.00 | 0.00 | 80 | 1016.4 |
| 20260902144649 | 61 | 131 | 6.0 | 9.0 | 0.00 | 0.00 | 0.00 | 78 | 1016.3 |
| 20260902144645 | 61 | 132 | 6.0 | 9.0 | 0.00 | 0.00 | 0.00 | 80 | 1016.3 |
| 20260902144254 | 61 | 123 | 7.0 | 10.0 | 0.00 | 0.00 | 0.00 | 75 | 1016.3 |
| 20260902143835 | 62 | 102 | 10.0 | 15.0 | 0.00 | 0.00 | 0.00 | 72 | 1016.0 |
| 20260902143753 | 61 | 113 | 7.0 | 10.0 | 0.00 | 0.00 | 0.00 | 71 | 1016.3 |
| 20260902143257 | 62 | 110 | 9.0 | 12.0 | 0.00 | 0.00 | 0.00 | 72 | 1016.2 |
| 20260902143253 | 61 | 111 | 7.0 | 11.0 | 0.00 | 0.00 | 0.00 | 73 | 1016.3 |
| 20260902142939 | 61 | 101 | 10.0 | 15.0 | 0.00 | 0.00 | 0.00 | 71 | 1016.2 |
| 20260902142836 | 62 | 102 | 10.0 | 15.0 | 0.00 | 0.00 | 0.00 | 72 | 1016.0 |
| 20260902142827 | 62 | 110 | 9.0 | 12.0 | 0.00 | 0.00 | 0.00 | 72 | 1016.2 |
| 20260902142708 | 61 | 111 | 7.0 | 11.0 | 0.00 | 0.00 | 0.00 | 73 | 1016.3 |
| 20260902142442 | 61 | 101 | 10.0 | 15.0 | 0.00 | 0.00 | 0.00 | 71 | 1016.2 |
| 20260902142217 | 61 | 107 | 8.0 | 11.0 | 0.00 | 0.00 | 0.00 | 74 | 1016.3 |
| 20260902140144 | 61 | 92 | 11.0 | 15.0 | 0.00 | 0.00 | 0.00 | 69 | 1015.9 |
| 20260902135754 | 60 | 90 | 11.0 | 14.0 | 0.00 | 0.00 | 0.00 | 76 | 1015.8 |
| 20260902135648 | 60 | 93 | 11.0 | 14.0 | 0.00 | 0.00 | 0.00 | 73 | 1015.7 |
| 20260902135644 | 61 | 88 | 12.0 | 15.0 | 0.00 | 0.00 | 0.00 | 72 | 1015.9 |
| 20260902134144 | 60 | 90 | 11.0 | 14.0 | 0.00 | 0.00 | 0.00 | 76 | 1015.7 |
| 20260902133644 | 59 | 79 | 10.0 | 14.0 | 0.00 | 0.00 | 0.00 | 82 | 1015.7 |
| 20260902133145 | 58 | 80 | 9.0 | 12.0 | 0.00 | 0.00 | 0.00 | 85 | 1015.7 |
| 20260902132645 | 58 | 79 | 9.0 | 12.0 | 0.00 | 0.00 | 0.00 | 87 | 1015.7 |
| 20260902132144 | 59 | 94 | 10.0 | 12.0 | 0.00 | 0.00 | 0.00 | 88 | 1015.7 |
| 20260902131643 | 59 | 86 | 10.0 | 12.0 | 0.00 | 0.00 | 0.00 | 87 | 1015.6 |
| 20260902131148 | 59 | 96 | 10.0 | 12.0 | 0.00 | 0.00 | 0.00 | 85 | 1015.6 |
| 20260902131144 | 59 | 80 | 10.0 | 12.0 | 0.00 | 0.00 | 0.00 | 87 | 1015.6 |
| 20260902130141 | 59 | 101 | 10.0 | 12.0 | 0.00 | 0.00 | 0.00 | 84 | 1015.6 |
| 20260902125640 | 59 | 98 | 10.0 | 12.0 | 0.00 | 0.00 | 0.00 | 85 | 1015.6 |
| 20260902125146 | 59 | 92 | 10.0 | 11.0 | 0.00 | 0.00 | 0.00 | 86 | 1015.6 |
| 20260902125140 | 59 | 98 | 10.0 | 11.0 | 0.00 | 0.00 | 0.00 | 86 | 1015.7 |
| 20260902124140 | 59 | 98 | 10.0 | 11.0 | 0.00 | 0.00 | 0.00 | 85 | 1015.6 |
| 20260902123639 | 59 | 98 | 9.0 | 10.0 | 0.00 | 0.00 | 0.00 | 86 | 1015.6 |
| 20260902123139 | 59 | 96 | 9.0 | 10.0 | 0.00 | 0.00 | 0.00 | 86 | 1015.6 |
| 20260902122640 | 59 | 101 | 9.0 | 11.0 | 0.00 | 0.00 | 0.00 | 85 | 1015.5 |
| 20260902122146 | 59 | 101 | 11.0 | 12.0 | 0.00 | 0.00 | 0.00 | 81 | 1015.6 |
| 20260902122140 | 59 | 103 | 9.0 | 11.0 | 0.00 | 0.00 | 0.00 | 84 | 1015.7 |
| 20260902121640 | 59 | 101 | 10.0 | 11.0 | 0.00 | 0.00 | 0.00 | 83 | 1015.7 |
| 20260902120640 | 59 | 94 | 11.0 | 12.0 | 0.00 | 0.00 | 0.00 | 80 | 1015.6 |
| 20260902120138 | 59 | 96 | 11.0 | 12.0 | 0.00 | 0.00 | 0.00 | 79 | 1015.6 |
| 20260902115644 | 59 | 94 | 9.0 | 12.0 | 0.00 | 0.00 | 0.00 | 77 | 1015.7 |
| 20260902115638 | 59 | 93 | 11.0 | 12.0 | 0.00 | 0.00 | 0.00 | 78 | 1015.6 |
| 20260902114637 | 59 | 98 | 7.0 | 10.0 | 0.00 | 0.00 | 0.00 | 78 | 1015.8 |
| 20260902114135 | 59 | 101 | 6.0 | 9.0 | 0.00 | 0.00 | 0.00 | 80 | 1015.8 |
| 20260902113635 | 60 | 107 | 7.0 | 9.0 | 0.00 | 0.00 | 0.00 | 76 | 1015.9 |
| 20260902113139 | 61 | 108 | 8.0 | 10.0 | 0.00 | 0.00 | 0.00 | 64 | 1015.7 |
| 20260902113135 | 60 | 111 | 8.0 | 10.0 | 0.00 | 0.00 | 0.00 | 70 | 1015.8 |
| 20260902112136 | 61 | 104 | 8.0 | 10.0 | 0.00 | 0.00 | 0.00 | 60 | 1015.7 |
| 20260902111640 | 62 | 104 | 9.0 | 11.0 | 0.00 | 0.00 | 0.00 | 55 | 1015.6 |
| 20260902111636 | 62 | 104 | 9.0 | 10.0 | 0.00 | 0.00 | 0.00 | 57 | 1015.7 |
| 20260902110636 | 62 | 100 | 9.0 | 11.0 | 0.00 | 0.00 | 0.00 | 52 | 1015.7 |
| 20260902110140 | 62 | 103 | 9.0 | 11.0 | 0.00 | 0.00 | 0.00 | 50 | 1015.7 |
| 20260902110136 | 62 | 102 | 9.0 | 11.0 | 0.00 | 0.00 | 0.00 | 51 | 1015.7 |
| 20260902105742 | 62 | 103 | 9.0 | 10.0 | 0.00 | 0.00 | 0.00 | 49 | 1015.7 |
| 20260902104635 | 62 | 105 | 8.0 | 11.0 | 0.00 | 0.00 | 0.00 | 46 | 1015.8 |
| 20260902104135 | 62 | 96 | 8.0 | 11.0 | 0.00 | 0.00 | 0.00 | 47 | 1015.8 |
| 20260902103635 | 63 | 92 | 10.0 | 11.0 | 0.00 | 0.00 | 0.00 | 50 | 1015.8 |
| 20260902103136 | 63 | 91 | 10.0 | 12.0 | 0.00 | 0.00 | 0.00 | 39 | 1015.8 |
| 20260902102636 | 62 | 94 | 10.0 | 12.0 | 0.00 | 0.00 | 0.00 | 43 | 1015.9 |
| 20260902102135 | 62 | 101 | 10.0 | 12.0 | 0.00 | 0.00 | 0.00 | 43 | 1015.8 |
| 20260902101635 | 62 | 94 | 8.0 | 12.0 | 0.00 | 0.00 | 0.00 | 49 | 1015.8 |
| 20260902101135 | 62 | 89 | 6.0 | 10.0 | 0.00 | 0.00 | 0.00 | 52 | 1015.8 |
| 20260902100639 | 61 | 91 | 4.0 | 9.0 | 0.00 | 0.00 | 0.00 | 33 | 1015.7 |
| 20260902100635 | 62 | 62 | 6.0 | 10.0 | 0.00 | 0.00 | 0.00 | 50 | 1015.8 |
| 20260902095635 | 61 | 87 | 4.0 | 7.0 | 0.00 | 0.00 | 0.00 | 50 | 1015.7 |
| 20260902095135 | 62 | 65 | 6.0 | 9.0 | 0.00 | 0.00 | 0.00 | 61 | 1015.8 |
| 20260902094639 | 63 | 51 | 7.0 | 9.0 | 0.00 | 0.00 | 0.00 | 46 | 1015.8 |
| 20260902094635 | 62 | 88 | 7.0 | 9.0 | 0.00 | 0.00 | 0.00 | 33 | 1015.7 |
| 20260902093633 | 62 | 82 | 6.0 | 9.0 | 0.00 | 0.00 | 0.00 | 42 | 1015.8 |
| 20260902093131 | 62 | 78 | 5.0 | 9.0 | 0.00 | 0.00 | 0.00 | 40 | 1015.8 |
| 20260902092631 | 62 | 59 | 5.0 | 7.0 | 0.00 | 0.00 | 0.00 | 46 | 1015.9 |
| 20260902092132 | 62 | 51 | 5.0 | 7.0 | 0.00 | 0.00 | 0.00 | 43 | 1015.9 |
| 20260902091631 | 62 | 46 | 6.0 | 8.0 | 0.00 | 0.00 | 0.00 | 47 | 1015.8 |
| 20260902091131 | 62 | 30 | 6.0 | 8.0 | 0.00 | 0.00 | 0.00 | 50 | 1015.8 |
| 20260902090635 | 63 | 45 | 5.0 | 6.0 | 0.00 | 0.00 | 0.00 | 41 | 1015.9 |
| 20260902090631 | 62 | 39 | 5.0 | 7.0 | 0.00 | 0.00 | 0.00 | 47 | 1015.8 |
| 20260902085631 | 63 | 63 | 5.0 | 7.0 | 0.00 | 0.00 | 0.00 | 43 | 1015.9 |
| 20260902085131 | 63 | 52 | 4.0 | 7.0 | 0.00 | 0.00 | 0.00 | 44 | 1015.8 |
| 20260902084631 | 63 | 44 | 3.0 | 6.0 | 0.00 | 0.00 | 0.00 | 44 | 1015.9 |
| 20260902084130 | 64 | 63 | 4.0 | 9.0 | 0.00 | 0.00 | 0.00 | 41 | 1015.9 |
| 20260902083630 | 64 | 78 | 5.0 | 9.0 | 0.00 | 0.00 | 0.00 | 42 | 1015.9 |
| 20260902083129 | 64 | 53 | 6.0 | 9.0 | 0.00 | 0.00 | 0.00 | 35 | 1015.9 |
| 20260902082629 | 65 | 29 | 5.0 | 9.0 | 0.00 | 0.00 | 0.00 | 27 | 1015.9 |
| 20260902082133 | 65 | 65 | 5.0 | 9.0 | 0.00 | 0.00 | 0.00 | 26 | 1015.9 |
| 20260902082129 | 65 | 18 | 5.0 | 9.0 | 0.00 | 0.00 | 0.00 | 29 | 1015.8 |
| 20260902081133 | 65 | 53 | 6.0 | 8.0 | 0.00 | 0.00 | 0.00 | 24 | 1016.0 |
| 20260902081129 | 65 | 44 | 5.0 | 8.0 | 0.00 | 0.00 | 0.00 | 27 | 1015.9 |
| 20260902080129 | 65 | 64 | 5.0 | 8.0 | 0.00 | 0.00 | 0.00 | 23 | 1015.9 |
| 20260902075628 | 65 | 37 | 4.0 | 6.0 | 0.00 | 0.00 | 0.00 | 29 | 1016.0 |
| 20260902075127 | 65 | 51 | 3.0 | 6.0 | 0.00 | 0.00 | 0.00 | 30 | 1016.0 |
| 20260902074627 | 65 | 59 | 3.0 | 5.0 | 0.00 | 0.00 | 0.00 | 29 | 1016.0 |
| 20260902074127 | 65 | 35 | 4.0 | 5.0 | 0.00 | 0.00 | 0.00 | 30 | 1016.0 |
| 20260902073627 | 66 | 42 | 4.0 | 5.0 | 0.00 | 0.00 | 0.00 | 28 | 1016.0 |
| 20260902073127 | 66 | 56 | 4.0 | 6.0 | 0.00 | 0.00 | 0.00 | 32 | 1016.0 |
| 20260902072626 | 66 | 82 | 5.0 | 7.0 | 0.00 | 0.00 | 0.00 | 29 | 1015.9 |
| 20260902072126 | 67 | 96 | 5.0 | 8.0 | 0.00 | 0.00 | 0.00 | 32 | 1015.9 |
| 20260902071631 | 67 | 109 | 5.0 | 8.0 | 0.00 | 0.00 | 0.00 | 27 | 1015.9 |
| 20260902071627 | 67 | 101 | 5.0 | 8.0 | 0.00 | 0.00 | 0.00 | 34 | 1015.9 |
| 20260902070624 | 67 | 100 | 5.0 | 8.0 | 0.00 | 0.00 | 0.00 | 19 | 1015.9 |
| 20260902070124 | 67 | 89 | 4.0 | 7.0 | 0.00 | 0.00 | 0.00 | 31 | 1015.9 |
| 20260902065625 | 67 | 76 | 4.0 | 7.0 | 0.00 | 0.00 | 0.00 | 32 | 1015.8 |
| 20260902065123 | 67 | 82 | 4.0 | 7.0 | 0.00 | 0.00 | 0.00 | 34 | 1015.9 |
| 20260902064626 | 68 | 82 | 4.0 | 6.0 | 0.00 | 0.00 | 0.00 | 33 | 1015.8 |
| 20260902064622 | 68 | 78 | 4.0 | 7.0 | 0.00 | 0.00 | 0.00 | 29 | 1015.8 |
| 20260902063622 | 68 | 92 | 5.0 | 8.0 | 0.00 | 0.00 | 0.00 | 26 | 1015.8 |
| 20260902063126 | 68 | 96 | 5.0 | 7.0 | 0.00 | 0.00 | 0.00 | 18 | 1015.8 |
| 20260902063122 | 68 | 92 | 6.0 | 8.0 | 0.00 | 0.00 | 0.00 | 22 | 1015.7 |
| 20260902062122 | 68 | 91 | 2.0 | 6.0 | 0.00 | 0.00 | 0.00 | 17 | 1015.8 |
| 20260902061623 | 68 | 59 | 1.0 | 3.0 | 0.00 | 0.00 | 0.00 | 20 | 1015.9 |
| 20260902061127 | 68 | 54 | 0.0 | 0.0 | 0.00 | 0.00 | 0.00 | 33 | 1015.8 |
| 20260902061122 | 68 | 59 | 0.0 | 2.0 | 0.00 | 0.00 | 0.00 | 31 | 1015.8 |
| 20260902060230 | 69 | 119 | 0.0 | 0.0 | 0.00 | 0.00 | 0.00 | 19 | 1015.7 |
| 20260902060126 | 69 | 61 | 0.0 | 0.0 | 0.00 | 0.00 | 0.00 | 30 | 1015.8 |
| 20260902060122 | 68 | 40 | 0.0 | 0.0 | 0.00 | 0.00 | 0.00 | 38 | 1015.7 |
| 20260902054622 | 69 | 119 | 0.0 | 0.0 | 0.00 | 0.00 | 0.00 | 20 | 1015.7 |
| 20260902054122 | 69 | 119 | 0.0 | 0.0 | 0.00 | 0.00 | 0.00 | 22 | 1015.8 |
| 20260902053626 | 69 | 112 | 0.0 | 0.0 | 0.00 | 0.00 | 0.00 | 22 | 1015.7 |
| 20260902053622 | 69 | 120 | 0.0 | 0.0 | 0.00 | 0.00 | 0.00 | 19 | 1015.8 |
| 20260902052621 | 69 | 57 | 0.0 | 0.0 | 0.00 | 0.00 | 0.00 | 30 | 1015.8 |
| 20260902052122 | 69 | 57 | 0.0 | 0.0 | 0.00 | 0.00 | 0.00 | 31 | 1015.7 |
| 20260902051625 | 70 | 57 | 0.0 | 2.0 | 0.00 | 0.00 | 0.00 | 36 | 1015.8 |
| 20260902051619 | 70 | 177 | 0.0 | 2.0 | 0.00 | 0.00 | 0.00 | 18 | 1015.8 |
| 20260902050618 | 70 | 177 | 0.0 | 2.0 | 0.00 | 0.00 | 0.00 | 14 | 1015.8 |
| 20260902050118 | 70 | 178 | 0.0 | 5.0 | 0.00 | 0.00 | 0.00 | 14 | 1015.8 |
| 20260902045617 | 71 | 207 | 1.0 | 5.0 | 0.00 | 0.00 | 0.00 | 17 | 1015.8 |
| 20260902045116 | 71 | 204 | 2.0 | 5.0 | 0.00 | 0.00 | 0.00 | 14 | 1015.7 |
| 20260902044617 | 71 | 208 | 4.0 | 5.0 | 0.00 | 0.00 | 0.00 | 14 | 1015.8 |
| 20260902044117 | 71 | 213 | 4.0 | 6.0 | 0.00 | 0.00 | 0.00 | 14 | 1015.7 |
| 20260902043620 | 71 | 207 | 5.0 | 6.0 | 0.00 | 0.00 | 0.00 | 14 | 1015.6 |
| 20260902043616 | 71 | 211 | 5.0 | 6.0 | 0.00 | 0.00 | 0.00 | 15 | 1015.6 |
| 20260902042614 | 71 | 223 | 5.0 | 6.0 | 0.00 | 0.00 | 0.00 | 14 | 1015.4 |
| 20260902042114 | 71 | 218 | 5.0 | 6.0 | 0.00 | 0.00 | 0.00 | 14 | 1015.4 |
| 20260902041614 | 71 | 216 | 6.0 | 7.0 | 0.00 | 0.00 | 0.00 | 14 | 1015.4 |
| 20260902041114 | 71 | 209 | 6.0 | 7.0 | 0.00 | 0.00 | 0.00 | 15 | 1015.3 |
| 20260902040614 | 71 | 218 | 5.0 | 7.0 | 0.00 | 0.00 | 0.00 | 16 | 1015.3 |
| 20260902040112 | 71 | 227 | 5.0 | 6.0 | 0.00 | 0.00 | 0.00 | 16 | 1015.3 |
| 20260902035612 | 71 | 226 | 5.0 | 7.0 | 0.00 | 0.00 | 0.00 | 17 | 1015.1 |
| 20260902035112 | 71 | 231 | 5.0 | 7.0 | 0.00 | 0.00 | 0.00 | 18 | 1015.1 |
| 20260902034612 | 71 | 231 | 6.0 | 8.0 | 0.00 | 0.00 | 0.00 | 19 | 1015.1 |
| 20260902034110 | 71 | 236 | 6.0 | 8.0 | 0.00 | 0.00 | 0.00 | 16 | 1015.0 |
| 20260902033609 | 70 | 227 | 6.0 | 8.0 | 0.00 | 0.00 | 0.00 | 16 | 1014.9 |
| 20260902033110 | 71 | 224 | 6.0 | 8.0 | 0.00 | 0.00 | 0.00 | 17 | 1014.9 |
| 20260902032609 | 71 | 225 | 6.0 | 8.0 | 0.00 | 0.00 | 0.00 | 18 | 1014.8 |
| 20260902032107 | 71 | 230 | 6.0 | 9.0 | 0.00 | 0.00 | 0.00 | 17 | 1014.8 |
| 20260902031608 | 71 | 223 | 6.0 | 9.0 | 0.00 | 0.00 | 0.00 | 16 | 1014.9 |
| 20260902031106 | 70 | 211 | 6.0 | 8.0 | 0.00 | 0.00 | 0.00 | 16 | 1014.8 |
| 20260902030606 | 71 | 236 | 6.0 | 9.0 | 0.00 | 0.00 | 0.00 | 14 | 1014.8 |
| 20260902030105 | 71 | 233 | 6.0 | 9.0 | 0.00 | 0.00 | 0.00 | 12 | 1014.8 |
| 20260902025610 | 71 | 217 | 8.0 | 9.0 | 0.00 | 0.00 | 0.00 | 12 | 1014.8 |
| 20260902025606 | 71 | 221 | 7.0 | 9.0 | 0.00 | 0.00 | 0.00 | 12 | 1014.8 |
| 20260902024606 | 71 | 222 | 8.0 | 10.0 | 0.00 | 0.00 | 0.00 | 11 | 1014.8 |
| 20260902024112 | 71 | 221 | 8.0 | 9.0 | 0.00 | 0.00 | 0.00 | 13 | 1014.6 |
| 20260902024106 | 71 | 217 | 8.0 | 10.0 | 0.00 | 0.00 | 0.00 | 11 | 1014.6 |
| 20260902023105 | 71 | 213 | 7.0 | 9.0 | 0.00 | 0.00 | 0.00 | 12 | 1014.5 |
| 20260902022606 | 71 | 220 | 8.0 | 10.0 | 0.00 | 0.00 | 0.00 | 16 | 1014.6 |
| 20260902022104 | 71 | 212 | 8.0 | 10.0 | 0.00 | 0.00 | 0.00 | 13 | 1014.5 |
| 20260902021603 | 71 | 204 | 9.0 | 11.0 | 0.00 | 0.00 | 0.00 | 12 | 1014.5 |
| 20260902021104 | 71 | 211 | 9.0 | 11.0 | 0.00 | 0.00 | 0.00 | 11 | 1014.5 |
| 20260902020604 | 71 | 205 | 8.0 | 10.0 | 0.00 | 0.00 | 0.00 | 12 | 1014.5 |
| 20260902020104 | 72 | 211 | 8.0 | 10.0 | 0.00 | 0.00 | 0.00 | 15 | 1014.6 |
| 20260902015604 | 72 | 198 | 8.0 | 10.0 | 0.00 | 0.00 | 0.00 | 17 | 1014.6 |
| 20260902015104 | 72 | 199 | 7.0 | 10.0 | 0.00 | 0.00 | 0.00 | 12 | 1014.6 |
| 20260902014603 | 72 | 200 | 7.0 | 10.0 | 0.00 | 0.00 | 0.00 | 17 | 1014.5 |
| 20260902014103 | 72 | 202 | 7.0 | 10.0 | 0.00 | 0.00 | 0.00 | 16 | 1014.6 |
| 20260902013604 | 72 | 205 | 7.0 | 10.0 | 0.00 | 0.00 | 0.00 | 15 | 1014.6 |
| 20260902013104 | 73 | 195 | 8.0 | 11.0 | 0.00 | 0.00 | 0.00 | 13 | 1014.8 |
| 20260902012602 | 73 | 205 | 8.0 | 11.0 | 0.00 | 0.00 | 0.00 | 18 | 1014.8 |
| 20260902012102 | 73 | 193 | 8.0 | 11.0 | 0.00 | 0.00 | 0.00 | 17 | 1014.6 |
| 20260902011602 | 73 | 194 | 7.0 | 11.0 | 0.00 | 0.00 | 0.00 | 17 | 1014.6 |
| 20260902011100 | 73 | 202 | 7.0 | 10.0 | 0.00 | 0.00 | 0.00 | 14 | 1014.8 |
| 20260902010559 | 73 | 183 | 7.0 | 10.0 | 0.00 | 0.00 | 0.00 | 16 | 1014.9 |
| 20260902010100 | 73 | 186 | 7.0 | 10.0 | 0.00 | 0.00 | 0.00 | 13 | 1014.9 |
| 20260902005600 | 73 | 202 | 6.0 | 10.0 | 0.00 | 0.00 | 0.00 | 17 | 1014.9 |
| 20260902005059 | 73 | 190 | 6.0 | 10.0 | 0.00 | 0.00 | 0.00 | 18 | 1014.9 |
| 20260902004600 | 73 | 196 | 6.0 | 10.0 | 0.00 | 0.00 | 0.00 | 20 | 1014.9 |
| 20260902004058 | 73 | 214 | 6.0 | 9.0 | 0.00 | 0.00 | 0.00 | 17 | 1014.9 |
| 20260902003558 | 73 | 199 | 6.0 | 9.0 | 0.00 | 0.00 | 0.00 | 25 | 1015.1 |
| 20260902003104 | 72 | 196 | 6.0 | 10.0 | 0.00 | 0.00 | 0.00 | 38 | 1015.0 |
| 20260902003057 | 72 | 223 | 6.0 | 9.0 | 0.00 | 0.00 | 0.00 | 29 | 1015.0 |
| 20260902002704 | 72 | 206 | 7.0 | 10.0 | 0.00 | 0.00 | 0.00 | 32 | 1015.1 |
| 20260902001555 | 72 | 192 | 7.0 | 10.0 | 0.00 | 0.00 | 0.00 | 36 | 1015.1 |
| 20260902001055 | 72 | 191 | 6.0 | 10.0 | 0.00 | 0.00 | 0.00 | 35 | 1015.1 |
| 20260902000556 | 72 | 192 | 6.0 | 9.0 | 0.00 | 0.00 | 0.00 | 37 | 1015.0 |
| 20260902000056 | 73 | 176 | 6.0 | 9.0 | 0.00 | 0.00 | 0.00 | 36 | 1015.0 |
| 20260901235556 | 73 | 219 | 7.0 | 9.0 | 0.00 | 0.00 | 0.00 | 30 | 1015.1 |
| 20260901235056 | 73 | 195 | 6.0 | 9.0 | 0.00 | 0.00 | 0.00 | 27 | 1015.1 |
| 20260901234559 | 73 | 182 | 6.0 | 9.0 | 0.00 | 0.00 | 0.00 | 31 | 1015.1 |
| 20260901234555 | 73 | 220 | 6.0 | 9.0 | 0.00 | 0.00 | 0.00 | 28 | 1015.1 |
| 20260901233556 | 73 | 229 | 7.0 | 10.0 | 0.00 | 0.00 | 0.00 | 23 | 1015.1 |
| 20260901233102 | 73 | 211 | 6.0 | 9.0 | 0.00 | 0.00 | 0.00 | 25 | 1015.1 |
| 20260901233056 | 72 | 202 | 7.0 | 10.0 | 0.00 | 0.00 | 0.00 | 31 | 1015.1 |
| 20260901232055 | 72 | 193 | 6.0 | 10.0 | 0.00 | 0.00 | 0.00 | 29 | 1015.2 |
| 20260901231555 | 72 | 202 | 6.0 | 10.0 | 0.00 | 0.00 | 0.00 | 36 | 1015.2 |
| 20260901231055 | 72 | 197 | 6.0 | 9.0 | 0.00 | 0.00 | 0.00 | 41 | 1015.3 |
| 20260901230555 | 72 | 213 | 6.0 | 9.0 | 0.00 | 0.00 | 0.00 | 47 | 1015.3 |
| 20260901230055 | 71 | 200 | 6.0 | 10.0 | 0.00 | 0.00 | 0.00 | 47 | 1015.3 |
| 20260901225555 | 71 | 198 | 6.0 | 10.0 | 0.00 | 0.00 | 0.00 | 39 | 1015.3 |
| 20260901225059 | 71 | 193 | 6.0 | 11.0 | 0.00 | 0.00 | 0.00 | 59 | 1015.3 |
| 20260901225055 | 70 | 200 | 7.0 | 10.0 | 0.00 | 0.00 | 0.00 | 50 | 1015.4 |
| 20260901224055 | 71 | 200 | 6.0 | 11.0 | 0.00 | 0.00 | 0.00 | 57 | 1015.3 |
| 20260901223555 | 71 | 173 | 7.0 | 10.0 | 0.00 | 0.00 | 0.00 | 61 | 1015.4 |
| 20260901223055 | 72 | 213 | 7.0 | 10.0 | 0.00 | 0.00 | 0.00 | 61 | 1015.4 |
| 20260901222556 | 71 | 198 | 7.0 | 10.0 | 0.00 | 0.00 | 0.00 | 57 | 1015.4 |
| 20260901222056 | 71 | 199 | 7.0 | 10.0 | 0.00 | 0.00 | 0.00 | 47 | 1015.4 |
| 20260901221555 | 71 | 207 | 6.0 | 10.0 | 0.00 | 0.00 | 0.00 | 47 | 1015.4 |
| 20260901221055 | 71 | 200 | 7.0 | 10.0 | 0.00 | 0.00 | 0.00 | 48 | 1015.6 |
| 20260901220556 | 72 | 203 | 7.0 | 13.0 | 0.00 | 0.00 | 0.00 | 54 | 1015.6 |
| 20260901220056 | 72 | 198 | 7.0 | 13.0 | 0.00 | 0.00 | 0.00 | 53 | 1015.6 |
| 20260901215556 | 72 | 200 | 7.0 | 12.0 | 0.00 | 0.00 | 0.00 | 56 | 1015.7 |
| 20260901215055 | 73 | 167 | 7.0 | 12.0 | 0.00 | 0.00 | 0.00 | 53 | 1015.7 |
| 20260901214559 | 72 | 192 | 6.0 | 11.0 | 0.00 | 0.00 | 0.00 | 56 | 1015.9 |
| 20260901214555 | 72 | 217 | 6.0 | 10.0 | 0.00 | 0.00 | 0.00 | 51 | 1015.7 |
| 20260901213554 | 73 | 170 | 5.0 | 11.0 | 0.00 | 0.00 | 0.00 | 54 | 1015.9 |
| 20260901213054 | 72 | 205 | 5.0 | 9.0 | 0.00 | 0.00 | 0.00 | 55 | 1015.8 |
| 20260901212553 | 72 | 231 | 6.0 | 10.0 | 0.00 | 0.00 | 0.00 | 45 | 1015.8 |
| 20260901212052 | 73 | 199 | 6.0 | 10.0 | 0.00 | 0.00 | 0.00 | 52 | 1015.8 |
| 20260901211551 | 73 | 168 | 5.0 | 10.0 | 0.00 | 0.00 | 0.00 | 46 | 1015.9 |
| 20260901211049 | 73 | 192 | 6.0 | 11.0 | 0.00 | 0.00 | 0.00 | 49 | 1015.9 |
| 20260901210549 | 72 | 209 | 6.0 | 11.0 | 0.00 | 0.00 | 0.00 | 45 | 1016.0 |
| 20260901210048 | 72 | 175 | 6.0 | 12.0 | 0.00 | 0.00 | 0.00 | 44 | 1016.0 |
| 20260901205547 | 72 | 165 | 6.0 | 12.0 | 0.00 | 0.00 | 0.00 | 44 | 1016.0 |
| 20260901205047 | 72 | 150 | 6.0 | 11.0 | 0.00 | 0.00 | 0.00 | 51 | 1016.2 |
| 20260901204547 | 72 | 190 | 6.0 | 11.0 | 0.00 | 0.00 | 0.00 | 52 | 1016.2 |
| 20260901204047 | 72 | 151 | 6.0 | 11.0 | 0.00 | 0.00 | 0.00 | 51 | 1016.3 |
| 20260901203547 | 71 | 187 | 6.0 | 12.0 | 0.00 | 0.00 | 0.00 | 55 | 1016.3 |
| 20260901203051 | 71 | 161 | 7.0 | 11.0 | 0.00 | 0.00 | 0.00 | 54 | 1016.3 |
| 20260901203047 | 71 | 186 | 6.0 | 12.0 | 0.00 | 0.00 | 0.00 | 55 | 1016.3 |
| 20260901202654 | 71 | 142 | 7.0 | 11.0 | 0.00 | 0.00 | 0.00 | 51 | 1016.4 |
| 20260901201546 | 71 | 134 | 7.0 | 12.0 | 0.00 | 0.00 | 0.00 | 49 | 1016.4 |
| 20260901201047 | 71 | 174 | 7.0 | 12.0 | 0.00 | 0.00 | 0.00 | 49 | 1016.4 |
| 20260901200545 | 72 | 135 | 6.0 | 11.0 | 0.00 | 0.00 | 0.00 | 55 | 1016.5 |
| 20260901200045 | 71 | 183 | 6.0 | 11.0 | 0.00 | 0.00 | 0.00 | 56 | 1016.6 |
| 20260901195545 | 71 | 205 | 6.0 | 11.0 | 0.00 | 0.00 | 0.00 | 58 | 1016.6 |
| 20260901195049 | 71 | 146 | 6.0 | 11.0 | 0.00 | 0.00 | 0.00 | 52 | 1016.6 |
| 20260901195045 | 71 | 184 | 7.0 | 11.0 | 0.00 | 0.00 | 0.00 | 55 | 1016.6 |
| 20260901194045 | 71 | 179 | 6.0 | 11.0 | 0.00 | 0.00 | 0.00 | 59 | 1016.6 |
| 20260901193550 | 70 | 124 | 6.0 | 10.0 | 0.00 | 0.00 | 0.00 | 65 | 1016.6 |
| 20260901193545 | 70 | 160 | 6.0 | 10.0 | 0.00 | 0.00 | 0.00 | 64 | 1016.6 |
| 20260901192544 | 70 | 159 | 6.0 | 10.0 | 0.00 | 0.00 | 0.00 | 67 | 1016.7 |
| 20260901192045 | 69 | 172 | 6.0 | 11.0 | 0.00 | 0.00 | 0.00 | 63 | 1016.7 |
| 20260901191549 | 70 | 164 | 5.0 | 9.0 | 0.00 | 0.00 | 0.00 | 69 | 1016.8 |
| 20260901191545 | 69 | 163 | 6.0 | 11.0 | 0.00 | 0.00 | 0.00 | 61 | 1016.8 |
| 20260901190545 | 71 | 173 | 4.0 | 9.0 | 0.00 | 0.00 | 0.00 | 66 | 1016.8 |
| 20260901190048 | 71 | 166 | 5.0 | 10.0 | 0.00 | 0.00 | 0.00 | 68 | 1016.7 |
| 20260901190044 | 71 | 234 | 5.0 | 8.0 | 0.00 | 0.00 | 0.00 | 65 | 1016.7 |
| 20260901185045 | 70 | 150 | 6.0 | 10.0 | 0.00 | 0.00 | 0.00 | 60 | 1016.7 |
| 20260901184544 | 70 | 180 | 6.0 | 10.0 | 0.00 | 0.00 | 0.00 | 63 | 1016.7 |
| 20260901184045 | 70 | 169 | 5.0 | 10.0 | 0.00 | 0.00 | 0.00 | 64 | 1016.6 |
| 20260901183545 | 69 | 163 | 5.0 | 9.0 | 0.00 | 0.00 | 0.00 | 59 | 1016.7 |
| 20260901183045 | 70 | 183 | 5.0 | 9.0 | 0.00 | 0.00 | 0.00 | 72 | 1016.8 |
| 20260901182544 | 70 | 149 | 4.0 | 9.0 | 0.00 | 0.00 | 0.00 | 67 | 1016.8 |
| 20260901182049 | 70 | 153 | 4.0 | 9.0 | 0.00 | 0.00 | 0.00 | 63 | 1016.7 |
| 20260901182045 | 71 | 175 | 5.0 | 9.0 | 0.00 | 0.00 | 0.00 | 71 | 1016.7 |
| 20260901181050 | 70 | 165 | 5.0 | 10.0 | 0.00 | 0.00 | 0.00 | 66 | 1016.7 |
| 20260901181045 | 70 | 138 | 5.0 | 9.0 | 0.00 | 0.00 | 0.00 | 66 | 1016.7 |
| 20260901180045 | 70 | 142 | 6.0 | 10.0 | 0.00 | 0.00 | 0.00 | 67 | 1016.6 |
| 20260901175545 | 69 | 148 | 4.0 | 9.0 | 0.00 | 0.00 | 0.00 | 69 | 1016.6 |
| 20260901175050 | 70 | 101 | 2.0 | 7.0 | 0.00 | 0.00 | 0.00 | 69 | 1016.5 |
| 20260901175046 | 70 | 130 | 3.0 | 8.0 | 0.00 | 0.00 | 0.00 | 68 | 1016.6 |
| 20260901174044 | 70 | 124 | 3.0 | 7.0 | 0.00 | 0.00 | 0.00 | 67 | 1016.5 |
| 20260901173547 | 69 | 139 | 2.0 | 7.0 | 0.00 | 0.00 | 0.00 | 70 | 1016.4 |
| 20260901173543 | 69 | 170 | 3.0 | 7.0 | 0.00 | 0.00 | 0.00 | 69 | 1016.5 |
| 20260901172542 | 69 | 134 | 3.0 | 6.0 | 0.00 | 0.00 | 0.00 | 71 | 1016.5 |
| 20260901172042 | 69 | 163 | 3.0 | 6.0 | 0.00 | 0.00 | 0.00 | 74 | 1016.4 |
| 20260901171542 | 69 | 146 | 2.0 | 5.0 | 0.00 | 0.00 | 0.00 | 73 | 1016.3 |
| 20260901171042 | 68 | 128 | 2.0 | 6.0 | 0.00 | 0.00 | 0.00 | 72 | 1016.4 |
| 20260901170542 | 67 | 88 | 2.0 | 6.0 | 0.00 | 0.00 | 0.00 | 76 | 1016.4 |
| 20260901170042 | 67 | 134 | 2.0 | 5.0 | 0.00 | 0.00 | 0.00 | 78 | 1016.4 |
| 20260901165542 | 66 | 136 | 2.0 | 6.0 | 0.00 | 0.00 | 0.00 | 79 | 1016.4 |
| 20260901165042 | 66 | 121 | 3.0 | 6.0 | 0.00 | 0.00 | 0.00 | 80 | 1016.3 |
| 20260901164541 | 65 | 151 | 3.0 | 6.0 | 0.00 | 0.00 | 0.00 | 79 | 1016.3 |
| 20260901164042 | 65 | 160 | 3.0 | 7.0 | 0.00 | 0.00 | 0.00 | 79 | 1016.2 |
| 20260901163542 | 65 | 155 | 4.0 | 9.0 | 0.00 | 0.00 | 0.00 | 78 | 1016.0 |
| 20260901163042 | 65 | 158 | 6.0 | 10.0 | 0.00 | 0.00 | 0.00 | 78 | 1016.0 |
| 20260901162546 | 65 | 133 | 4.0 | 10.0 | 0.00 | 0.00 | 0.00 | 76 | 1015.9 |
| 20260901162542 | 65 | 121 | 6.0 | 10.0 | 0.00 | 0.00 | 0.00 | 77 | 1015.9 |
| 20260901162149 | 65 | 128 | 4.0 | 9.0 | 0.00 | 0.00 | 0.00 | 76 | 1015.8 |
| 20260901161042 | 64 | 114 | 5.0 | 9.0 | 0.00 | 0.00 | 0.00 | 77 | 1015.9 |
| 20260901160542 | 64 | 121 | 4.0 | 9.0 | 0.00 | 0.00 | 0.00 | 75 | 1015.9 |
| 20260901160039 | 63 | 137 | 4.0 | 9.0 | 0.00 | 0.00 | 0.00 | 73 | 1015.9 |
| 20260901155538 | 63 | 143 | 3.0 | 8.0 | 0.00 | 0.00 | 0.00 | 79 | 1015.9 |